This demonstration page uses our WeatherBlox Daily Observations layout. Learn more.

Left ArrowRight Arrow

53.62937, 11.41316

Hourly Observations for January 20, 2016

Temp ( °F °C ) Dew Point ( °F °C ) Humidity (%) Winds ( mph kmh ) Pressure ( in mb ) Visibility ( mi km ) Precip ( " mm )
5:20 am 05:20 Cloudy with Mist and Fog 30 -1 28 -2 93 93 W 8 13 29.85 1011 2 4 N/A
5:50 am 05:50 Cloudy with Mist and Fog 30 -1 28 -2 93 93 W 6 9 29.85 1011 3 5 N/A
6:20 am 06:20 Cloudy 30 -1 25 -4 80 80 WSW 9 15 29.85 1011 6 9 N/A
6:50 am 06:50 Cloudy 30 -1 25 -4 80 80 W 6 9 29.88 1012 30 48 N/A
7:20 am 07:20 Mostly Cloudy 28 -2 27 -3 93 93 W 7 11 29.88 1012 30 48 N/A
7:50 am 07:50 Mostly Cloudy 28 -2 25 -4 86 86 W 9 15 29.88 1012 30 48 N/A
8:20 am 08:20 Partly Cloudy 28 -2 25 -4 86 86 W 9 15 29.88 1012 30 48 N/A
8:50 am 08:50 Mostly Sunny 25 -4 23 -5 93 93 W 6 9 29.88 1012 30 48 N/A
9:20 am 09:20 Partly Cloudy 25 -4 23 -5 93 93 W 5 7 29.91 1013 30 48 N/A
9:50 am 09:50 Cloudy 28 -2 25 -4 86 86 W 6 9 29.91 1013 30 48 N/A
10:20 am 10:20 Cloudy 28 -2 25 -4 86 86 W 8 13 29.91 1013 6 9 N/A
10:50 am 10:50 Cloudy 28 -2 27 -3 93 93 W 7 11 29.91 1013 4 7 N/A
11:20 am 11:20 Cloudy 28 -2 27 -3 93 93 NW 6 9 29.94 1014 4 7 N/A
11:50 am 11:50 Cloudy 28 -2 27 -3 93 93 WNW 3 6 29.94 1014 5 8 N/A
12:20 pm 12:20 Cloudy 28 -2 27 -3 93 93 N 5 7 29.94 1014 4 7 N/A
12:50 pm 12:50 Cloudy 28 -2 27 -3 93 93 N 5 7 29.94 1014 6 9 N/A
1:20 pm 13:20 Mostly Cloudy 28 -2 27 -3 93 93 VRB 3 6 29.94 1014 30 48 N/A
1:50 pm 13:50 Mostly Cloudy 32 0 27 -3 80 80 N 3 6 29.94 1014 30 48 N/A
2:20 pm 14:20 Mostly Cloudy 30 -1 27 -3 86 86 NW 5 7 29.94 1014 30 48 N/A
2:50 pm 14:50 Mostly Cloudy 30 -1 27 -3 86 86 N 3 6 29.94 1014 30 48 N/A
3:20 pm 15:20 Mostly Cloudy 30 -1 27 -3 86 86 VRB 1 2 29.94 1014 30 48 N/A
3:50 pm 15:50 Mostly Cloudy 30 -1 27 -3 86 86 VRB 1 2 29.97 1015 30 48 N/A
4:20 pm 16:20 Mostly Cloudy 30 -1 27 -3 86 86 N 3 6 29.97 1015 30 48 N/A
4:50 pm 16:50 Mostly Cloudy 28 -2 27 -3 93 93 N 2 4 29.97 1015 30 48 N/A
5:20 pm 17:20 Mostly Cloudy 28 -2 25 -4 86 86 N 5 7 30.00 1016 30 48 N/A
5:50 pm 17:50 Mostly Cloudy 28 -2 25 -4 86 86 NW 3 6 30.00 1016 30 48 N/A

Powered by AerisWeather